www.pogodaiklimat.ru

Погода и климат >> Архив погоды >> Канада >> Нунавут >> Алерт


ПОГОДА в Алерте

  • Прогноз погоды в Алерте
  • Монитор погоды в Алерте

АРХИВ ПОГОДЫ в Алерте

Время (UTC), дата Ветер
(напр.,м/с)
 
Видим.   Явления Облачность Т
(С)
Тd
(С)
f
(%)
Тe
(С)
Тes
(С)
Комфортность P
(гПа)
Po
(гПа)
Тmin
(С)
Tmax
(С)
R
(мм)
R24
(мм)
S
(см)
15 20.06 ЮВ 1 н/о {осадки} н/о -0.1 -0.5 97 -2 -2 1004.1 995.7 0.2
18 20.06 СЗ 2 н/о {осадки} н/о +0.3 -0.4 95 -3 -3 1004.2 995.8 -0.7 +0.8 1
21 20.06 С 5 н/о {осадки} н/о -0.2 -0.4 99 -6 -6 1004.9 996.4 0.9
00 21.06 С 2 н/о {осадки} н/о -0.5 -0.6 99 -4 -4 1005.8 997.4 -0.7 +0.8 2
03 21.06 В 3 н/о н/о -0.5 -0.6 99 -6 -6 1006.0 997.6 3
06 21.06 В 5 н/о н/о -0.3 -0.5 99 -7 -7 1005.6 997.2 -0.7 +0.8 3
09 21.06 В 4 н/о {осадки} н/о -0.0 -0.2 99 -5 -5 1005.4 997.0 0.4
12 21.06 СЗ 2 н/о {осадки} н/о +1.0 +0.8 99 -3 -3 1004.2 995.8 -0.7 +0.8 0.6
15 21.06 ЮЗ 11 н/о н/о +4.0 +1.3 83 -3 -3 1002.8 994.4
18 21.06 ЮЗ 12 н/о н/о +4.2 +1.0 80 -3 -3 1001.6 993.2 -0.7 +4.5
21 21.06 ЮЗ 13 н/о н/о +4.3 0.0 74 -3 -3 1000.8 992.5
00 22.06 Ю 15 н/о н/о +3.9 -1.0 70 -4 -4 1000.3 992.0 -0.4 +4.6
03 22.06 ЮЗ 14 н/о н/о +3.4 -1.7 69 -4 -4 999.6 991.3
06 22.06 ЮЗ 13 н/о н/о +2.5 -1.3 76 -6 -6 999.6 991.3 -0.4 +4.6 1
09 22.06 ЮЗ 10 н/о н/о +3.0 -1.3 73 -4 -4 1000.5 992.1
12 22.06 Ю 9 н/о н/о +4.9 +0.5 73 -1 -1 1001.2 992.8 +2.2 +4.6
15 22.06 Ю 7 н/о н/о +5.8 0.0 66 +1 +1 1001.4 993.1
18 22.06 Ю 7 н/о н/о +6.6 0.0 63 +2 +2 1001.4 993.1 +2.2 +6.8
21 22.06 ЮЗ 5 н/о н/о +6.9 -0.6 59 +3 +3 1002.0 993.7
00 23.06 Ю 3 н/о н/о +7.1 -1.4 55 +5 +5 1002.9 994.6 +2.4 +7.4
03 23.06 Ю 6 н/о н/о +6.1 -0.9 61 +2 +2 1003.8 995.5
06 23.06 Ю 6 н/о н/о +5.9 -0.4 64 +2 +2 1005.1 996.8 +2.4 +7.5 7
09 23.06 Ю 9 н/о н/о +6.0 -0.5 63 +1 +1 1006.6 998.3
12 23.06 Ю 9 н/о н/о +6.6 -0.9 59 +2 +2 1008.0 999.7 +5.1 +7.5
15 23.06 ЮЗ 10 н/о н/о +7.4 +0.1 60 +2 +2 1008.8 1000.5
18 23.06 ЮЗ 9 н/о н/о +7.8 -1.2 53 +3 +3 1009.5 1001.2 +5.1 +8.0
21 23.06 Ю 7 н/о н/о +8.4 -1.3 50 +5 +5 1010.2 1001.8
00 24.06 ЮВ 8 н/о н/о +6.2 -0.4 63 +1 +1 1010.8 1002.5 +5.1 +8.6
03 24.06 В 3 н/о н/о +5.1 -1.1 64 +2 +2 1011.0 1002.6
06 24.06 СВ 3 н/о н/о +3.6 -2.2 66 +1 +1 1010.9 1002.5 +3.6 +8.6 14
09 24.06 СВ 2 н/о н/о +3.6 +0.3 79 +1 +1 1011.7 1003.3
12 24.06 С 2 н/о н/о +4.0 +0.3 77 +2 +2 1012.5 1004.1 +2.1 +8.6
15 24.06 СВ 2 н/о н/о +4.2 +0.3 76 +2 +2 1012.7 1004.3
18 24.06 В 4 н/о н/о +5.7 -0.7 63 +2 +2 1012.4 1004.0 +2.1 +6.7
21 24.06 З 2 н/о н/о +7.5 +1.2 64 +6 +6 1012.3 1003.9
00 25.06 Ю 1 н/о н/о +3.9 +2.5 91 +2 +2 1012.7 1004.3 +2.1 +7.7
03 25.06 ЮЗ 1 н/о н/о +3.9 +1.9 87 +2 +2 1013.0 1004.6
06 25.06 З 2 н/о н/о +4.7 +1.5 80 +3 +3 1012.9 1004.5 +2.1 +7.7
09 25.06 В 2 н/о н/о +0.8 -1.3 86 -2 -2 1014.2 1005.7
12 25.06 В 1 н/о н/о +0.9 -0.6 90 -1 -1 1015.0 1006.6 +0.6 +7.7
15 25.06 В 2 н/о н/о +1.2 -1.9 80 -2 -2 1015.7 1007.2
18 25.06 СВ 2 н/о н/о +1.6 -1.6 79 -2 -2 1016.8 1008.3 +0.6 +5.0
21 25.06 В 2 н/о н/о +1.7 -1.5 79 -1 -1 1018.3 1009.7
00 26.06 СВ 2 н/о н/о +1.5 -0.1 89 -2 -2 1019.8 1011.2 +0.6 +2.0
03 26.06 В 1 н/о н/о +1.1 -0.5 89 -1 -1 1021.2 1012.7
06 26.06 ЮВ 1 н/о н/о +1.1 -0.7 88 +1 +1 1022.7 1014.1 +0.6 +5.0
09 26.06 В 1 н/о н/о +1.7 -0.8 83 -0 -0 1024.2 1015.7
12 26.06 СВ 3 н/о н/о +2.5 -2.2 71 -1 -1 1025.9 1017.4 +0.8 +5.0
15 26.06 С 2 н/о н/о +2.3 -0.5 82 -1 -1 1027.3 1018.7
18 26.06 В 2 н/о н/о +2.3 -1.7 75 -0 -0 1028.1 1019.6 +0.8 +2.7
21 26.06 СВ 3 н/о н/о +2.7 -1.1 76 -1 -1 1029.4 1020.8
00 27.06 В 2 н/о н/о +1.3 -1.7 80 -2 -2 1030.4 1021.8 +1.0 +3.2
03 27.06 В 2 н/о н/о +1.2 -2.1 79 -1 -1 1031.2 1022.5
06 27.06 СВ 2 н/о н/о +1.9 -1.9 76 -1 -1 1031.4 1022.8 +1.0 +3.2
09 27.06 В 2 н/о н/о +2.7 -1.3 75 -0 -0 1032.4 1023.8

 

Местоположение метеостанции Алерт (Нунавут, Канада): широта 82.50 долгота -62.31 высота над уровнем моря 65 м.

В архиве по умолчанию представлена погода в Алерте за последнюю неделю. Архивные данные за месяц целиком и за предыдущие месяцы, начиная с января 2011 года, Вы можете получить, выбрав интересующий диапазон дат из раскрывающегося списка и нажав кнопку "Ввод!".


*Определитесь, кто Вы:
робот инопланетянин человек

Внимание! Время в таблицах - всемирное. Для получения местного времени необходимо прибавить поправку, которая равна -4 ч.

Смотрите также архив погоды в соседних городах и на ближайших метеорологических станциях:

Погода в Kap Morris Jesup (Гренландия) (404 км)
Погода в Юрике (Нунавут, Канада) (482 км)
Погода в Юрике (Нунавут, Канада) (483 км)
Погода в Mittarfik Qaanaaq (Гренландия) (574 км)
Погода в Kitsissut (Гренландия) (685 км)
Погода в Station Nord aws (Гренландия) (690 км)
Погода в Сарнии (Онтарио, Канада) (747 км)
Погода в Henrik Kroeyer Holm (Гренландия) (792 км)
Погода в Исачсене (Нунавут, Канада) (826 км)
Погода в Kitsissorsuit (Гренландия) (947 км)

Пояснения к столбцам:

Ветер - указаны скорость ветра в м/с - средняя за 10 мин, порывы в срок и между сроками (в фигурных скобках) и направление, откуда дует ветер: С - северный, СВ - северо-восточный, В - восточный, ЮВ - юго-восточный, Ю - южный, ЮЗ - юго-западный, З - западный, СЗ - северо-западный.
Видимость - горизонтальная дальность видимости в метрах или километрах. При видимости от 1 до 10 км при отсутствии осадков обычно наблюдается дымка, при ухудшении видимости до 1 км и менее - туман. В сухую погоду видимость может ухудшаться дымом, пылью или мглою.
Явления - указаны атмосферные явления, наблюдавшиеся в срок или в последний час перед сроком; фигурными скобками обозначены явления, наблюдавшиеся между сроками (за 1-3 часа до срока); квадратными скобками обозначены град или гололедные отложения с указанием их диаметра в мм.
Облачность - указаны через наклонную черту общая и нижняя облачность в баллах и высота нижней границы облаков в метрах; квадратными скобками обозначены формы облаков: Ci - перистые, Cs - перисто-слоистые, Cc - перисто-кучевые, Ac - высококучевые, As - высокослоистые, Sc - слоисто-кучевые, Ns - слоисто-дождевые, Cu - кучевые, Cb - кучево-дождевые. Подробнее классификацию облаков см. в Атласе облаков (PDF).
T - Температура воздуха - температура, измеренная на высоте 2 м над землей.
Td - Температура точки росы - температура, при понижении до которой содержащийся в воздухе водяной пар достигнет насыщения.
f - Относительная влажность воздуха - влажноcть воздуха, измеренная на высоте 2 м над землей.
Te - Эффективная температура - температура, которую ощущает одетый по сезону человек в тени. Характеристика душности погоды. При расчете учитывается влияние влажности воздуха и скорости ветра на теплоощущения человека.
Tes - Эффективная температура на солнце - температура, которую ощущает человек, с поправкой на солнечный нагрев. Характеристика знойности погоды. Зависит от высоты солнца над горизонтом, облачности и скорости ветра. Ночью, в пасмурную погоду, а также при ветре 12 м/с и более поправка равна нулю.
P - Атмосферное давление - приведенное к уровню моря атмосферное давление.
Po - Атмосферное давление - измеренное на уровне метеостанции атмосферное давление.
Tmin - Минимальная температура - минимум температуры воздуха на высоте 2 м над землей.
Tmax - Максимальная температура - максимум температуры воздуха на высоте 2 м над землей.
R - Количество осадков - Количество выпавших осадков за период времени, мм. При наведении курсора мыши на число - период времени, за который выпало указанное количество осадков.
R24 - Количество осадков - Количество выпавших осадков за 24 часа, мм.
S - Снежный покров - Высота снежного покрова, см. При наведении курсора мыши на число - состояние снежного покрова и степень покрытия местности в баллах.